| DS18B20 | SHTC3 | ||||||
|---|---|---|---|---|---|---|---|
| ID | Date d/m/Y & Time | data1 สูง | data2 ต่ำ | data3 นอก | temp pcb | hum pcb | Time |
| 8904 | 05/04/2026 02:42:34 | 27.4  | 27.6  | 25.2  | 27.6  | 70.5  | 02:42 |
| 8903 | 05/04/2026 02:37:52 | 27.5  | 27.7  | 25.5  | 27.4  | 70.4  | 02:37 |
| 8902 | 05/04/2026 02:33:10 | 27.5  | 27.7  | 25.3  | 27.5  | 70.3  | 02:33 |
| 8901 | 05/04/2026 02:28:29 | 27.6  | 27.7  | 25.0  | 27.6  | 70.4  | 02:28 |
| 8900 | 05/04/2026 02:23:47 | 27.6  | 27.8  | 25.0  | 27.5  | 70.3  | 02:23 |
| 8899 | 05/04/2026 02:19:04 | 27.6  | 27.8  | 25.2  | 27.6  | 70.4  | 02:19 |
| 8898 | 05/04/2026 02:14:22 | 27.6  | 27.8  | 25.3  | 27.6  | 70.4  | 02:14 |
| 8897 | 05/04/2026 02:09:41 | 27.7  | 27.8  | 25.5  | 27.7  | 70.3  | 02:09 |
| 8896 | 05/04/2026 02:04:57 | 27.7  | 27.9  | 25.5  | 27.6  | 70.3  | 02:04 |
| 8895 | 05/04/2026 02:00:14 | 27.8  | 27.9  | 25.3  | 27.6  | 70.2  | 02:00 |
| 8894 | 05/04/2026 01:55:30 | 27.8  | 27.9  | 25.2  | 27.6  | 70.3  | 01:55 |
| 8893 | 05/04/2026 01:50:47 | 27.8  | 27.9  | 25.2  | 27.6  | 70.2  | 01:50 |
| 8892 | 05/04/2026 01:46:05 | 27.8  | 27.9  | 25.0  | 27.7  | 70.2  | 01:46 |
| 8891 | 05/04/2026 01:41:23 | 27.9  | 28.0  | 25.1  | 27.9  | 70.2  | 01:41 |
| 8890 | 05/04/2026 01:36:41 | 27.9  | 28.0  | 25.2  | 27.8  | 70.2  | 01:36 |
| 8889 | 05/04/2026 01:31:59 | 27.9  | 28.0  | 25.2  | 27.9  | 70.1  | 01:31 |
| 8888 | 05/04/2026 01:27:17 | 27.9  | 28.1  | 25.4  | 27.9  | 70.2  | 01:27 |
| 8887 | 05/04/2026 01:22:35 | 28.0  | 28.1  | 25.6  | 27.9  | 70.1  | 01:22 |
| 8886 | 05/04/2026 01:17:54 | 28.0  | 28.1  | 25.4  | 28.1  | 70.2  | 01:17 |
| 8885 | 05/04/2026 01:13:12 | 28.1  | 28.1  | 25.5  | 27.9  | 70.1  | 01:13 |
| 8884 | 05/04/2026 01:08:30 | 28.1  | 28.1  | 25.5  | 27.9  | 70.1  | 01:08 |
| 8883 | 05/04/2026 01:03:48 | 28.1  | 28.2  | 25.9  | 28.0  | 70.2  | 01:03 |
| 8882 | 05/04/2026 00:59:06 | 28.1  | 28.2  | 26.0  | 27.9  | 70.0  | 00:59 |
| 8881 | 05/04/2026 00:54:24 | 28.1  | 28.2  | 26.0  | 28.1  | 70.1  | 00:54 |